Weather Roundup
Issued by NWS Springfield, MO

Home | Current Version | Previous Version | Text Only | Print | Product List | Glossary On
Versions: 1 2 3 4 5 6 7 8 9 10 11 12 13 14 15 16 17 18 19 20 21 22 23 24 25 26 27 28 29 30 31 32 33 34 35 36 37 38 39 40 41 42 43 44 45 46 47 48 49 50
000
NZUS99 KSGF 211007
HRRSGF

HOURLY WEATHER
NATIONAL WEATHER SERVICE SPRINGFIELD MO
500 AM CDT SAT APR 21 2018

......SGF CWA......

CITY           SKY/WX    TMP DP  RH WIND       PRES   REMARKS
SPRINGFIELD    CLOUDY    52  28  39 E8        30.22F
JOPLIN         CLOUDY    53  27  36 E10       30.19F
WEST PLAINS    PTCLDY    45  28  51 NE6       30.26S
ROLLA          CLOUDY    46  26  45 E10       30.28S
OSAGE BEACH    CLOUDY    48  26  42 E3        30.28F
BRANSON        CLOUDY    48  27  43 CALM      30.23F

......SURROUNDING SGF CWA......

CITY           SKY/WX    TMP DP  RH WIND       PRES   REMARKS
CHANUTE        CLOUDY    55  27  34 SE9       30.18F
PARSONS        LGT RAIN  53  32  44 VRB5      30.18F
COFFEYVILLE    CLOUDY    51  35  54 E5        30.17R
EMPORIA        LGT RAIN  48  36  63 E9        30.20R
GROVE OK       CLOUDY    54  28  37 E8        30.17F
ROGERS AR      CLOUDY    50  27  40 E8        30.21F
SILOAM SPRINGS PTCLDY    50  29  44 E7        30.18F
HARRISON AR    CLOUDY    47  28  47 CALM      30.22S
NEAR YELLVILLE CLOUDY    46  31  55 N3        30.24S

......KANSAS AND MISSOURI......

CITY           SKY/WX    TMP DP  RH WIND       PRES   REMARKS
KANSAS CTY INT CLOUDY    50  25  37 E8        30.25F
DOWNTOWN KC    CLOUDY    52  26  36 E5        30.24F
COLUMBIA       CLOUDY    47  25  42 E6        30.30F
SEDALIA        CLOUDY    49  28  44 E7        30.27F
ST JOSEPH      CLOUDY    51  25  36 E7        30.27F
ST LOUIS       CLOUDY    46  27  47 E7        30.33S
SPIRIT OF STL  CLOUDY    38  33  82 CALM      30.31F
KIRKSVILLE     PTCLDY    44  28  53 E5        30.33F
WICHITA        LGT RAIN  49  45  86 E10       30.16F
TOPEKA         LGT RAIN  51  31  46 E9        30.22F
OLATHE         CLOUDY    49  27  42 NE6       30.23F

......TENNESSEE......

CITY           SKY/WX    TMP DP  RH WIND       PRES   REMARKS
MEMPHIS        FAIR      51  34  52 E7        30.22S
NASHVILLE      FAIR      44  32  62 NE3       30.30F

......ARKANSAS.......

CITY           SKY/WX    TMP DP  RH WIND       PRES   REMARKS
FAYETTEVILLE   CLOUDY    47  30  51 E6        30.19F
FT SMITH       PTCLDY    51  38  60 E8        30.16F
LITTLE ROCK    FAIR      47  39  74 NE5       30.19F

......OKLAHOMA.......

CITY           SKY/WX    TMP DP  RH WIND       PRES   REMARKS
TULSA          CLOUDY    54  38  54 E8        30.11F
PONCA CITY     LGT RAIN  49  44  83 N6        30.15R
MCALESTER      CLOUDY    54  39  57 E5        30.10F
OKLAHOMA CITY  LGT RAIN  54  44  69 CALM      30.06R

......IOWA............

CITY           SKY/WX    TMP DP  RH WIND       PRES   REMARKS
DES MOINES     CLOUDY    46  33  60 NE9       30.34F
QUAD CITIES    FAIR      46  25  43 E6        30.39R

......ILLINOIS........

CITY           SKY/WX    TMP DP  RH WIND       PRES   REMARKS
QUINCY         PTCLDY    47  25  42 E8        30.34F
CHICAGO        CLOUDY    43  17  35 CALM      30.43S





USA.gov is the U.S. government's official web portal to all federal, state and local government web resources and services.